Location: Newark
(45.4422°N, 16.2769°E)
Time: 11:51:13
(UTC+00:00)

Vanguard 2 - Pass Details

Date: 09 December 2019
Orbit: 553 x 2938 km, 32.9° (Epoch: 26 January)

Event Time Altitude Azimuth Distance (km) Brightness Sun altitude
Rises 05:36:28 0° 273° (W) 6,794 - -7.9°
Exits shadow 05:37:53 - 271° (W) 6,502 11.7 -7.7°
Reaches altitude 10° 05:41:34 10° 266° (W) 5,741 11.4 -7.1°
Maximum altitude 05:56:24 37° 208° (SSW) 3,422 10.8 -4.8°
Drops below altitude 10° 06:07:31 10° 147° (SSE) 4,311 12.6 -3.1°
Sets 06:10:44 0° 139° (SE) 4,994 13.4 -2.6°
